Miscellaneous Local Product
Issued by NWS Hastings, NE

Home | Current Version | Previous Version | Graphics & Text | Print | Product List | Glossary On
Versions: 1 2 3 4 5 6 7 8 9 10 11 12 13 14 15 16 17 18 19 20 21 22 23 24 25 26 27 28 29 30 31 32 33 34 35 36 37 38 39 40 41 42 43 44 45 46 47 48 49 50
094
AXUS43 KGID 261602
MISGRI

GID CWA HOURLY WEATHER ROUNDUP
NATIONAL WEATHER SERVICE HASTINGS NE
1100 AM CDT SUN MAR 26 2017

NOTE: "FAIR" INDICATES FEW OR NO CLOUDS BELOW 12,000 FEET WITH NO
SIGNIFICANT WEATHER AND/OR OBSTRUCTIONS TO VISIBILITY.

...SOUTH CENTRAL NEBRASKA...

CITY           SKY/WX    TMP DP  RH WIND       PRES   REMARKS
GRAND ISLAND   CLOUDY    41  41 100 CALM      29.94R FOG
HASTINGS       CLOUDY    43  39  86 CALM      29.94R
KEARNEY        CLOUDY    43  37  81 CALM      29.93S
ORD            CLOUDY    42  38  85 CALM      29.92R
YORK           CLOUDY    41  41 100 NW3       29.93R
AURORA         CLOUDY    41  41  99 W5        29.93R FOG
LEXINGTON      CLOUDY    41  38  87 CALM      29.92S
HOLDREGE       CLOUDY    42  40  93 CALM      29.91F
HEBRON         CLOUDY    42  40  93 CALM      29.93S

...NEBRASKA PANHANDLE...

CITY           SKY/WX    TMP DP  RH WIND       PRES   REMARKS
CHADRON        CLOUDY    46  35  65 N15       29.91R
ALLIANCE       CLOUDY    44  37  76 S3        29.87R
SCOTTSBLUFF    CLOUDY    49  31  49 N12       29.89R
SIDNEY         CLOUDY    44  36  73 S9        29.89R

...WESTERN AND NORTH CENTRAL NEBRASKA...

CITY           SKY/WX    TMP DP  RH WIND       PRES   REMARKS
VALENTINE      MOSUNNY   46  38  73 SE3       29.89R
AINSWORTH      CLOUDY    40  40 100 S3        29.91R
ONEILL         CLOUDY    40  40  99 CALM      29.93R FOG
BROKEN BOW     CLOUDY    44  41  89 CALM      29.90S
IMPERIAL       CLOUDY    41  39  93 NE3       29.89S FOG
NORTH PLATTE   CLOUDY    42  38  85 SE3       29.90S
MCCOOK         CLOUDY    41  40  96 NE5       29.90R

...EASTERN NEBRASKA...

CITY           SKY/WX    TMP DP  RH WIND       PRES   REMARKS
NORFOLK        CLOUDY    40  37  89 N5        29.92R FOG
SO SIOUX CITY  CLOUDY    43  38  82 N7        29.93S
TEKAMAH        CLOUDY    42  38  85 N8        29.93R
COLUMBUS       CLOUDY    41  37  87 NW3       29.94R
ALBION         CLOUDY    42  39  90 NW3       29.93R FOG
OMAHA EPPLEY   CLOUDY    43  38  82 N6        29.92R
OFFUTT AFB     CLOUDY    43  39  85 NW3       29.93R
MILLARD        CLOUDY    44  40  86 NW6       29.93R
LINCOLN        CLOUDY    43  40  89 N5        29.95R
NEBRASKA CITY  CLOUDY    42  40  93 NW5       29.93R
BEATRICE       CLOUDY    43  40  89 NW5       29.93R
FALLS CITY     CLOUDY    44  41  89 W7        29.93R

...NORTHERN KANSAS...

CITY           SKY/WX    TMP DP  RH WIND       PRES   REMARKS
GOODLAND       FOG       40  40 100 E12       29.84R VSB 3/4 WCI  33
HILL CITY      CLOUDY    44  42  93 E9        29.90R
NORTON         CLOUDY    39  36  87 NE9       29.89  WCI  33
PHILLIPSBURG   CLOUDY    45  43  93 NE5       29.92R
HAYS             N/A     44  40  85 E12       29.89S
RUSSELL        CLOUDY    45  41  86 E8        29.89R
CONCORDIA      CLOUDY    43  42  97 CALM      29.93R FOG
SALINA         CLOUDY    46  43  89 CALM      29.93S FOG
TOPEKA         CLOUDY    47  43  86 W5        29.93S



USA.gov is the U.S. government's official web portal to all federal, state and local government web resources and services.